Phenix City, Alabama, United States (36867)
Lat: 32.47N, Lon: 85W
Wx Zone: ALZ048
Local Info
Past Weather Observations for Yesterday

NOTE: This archive is for the closest National Weather Service station to Phenix City. Information may differ from the station used for current weather conditions.

Click here for Long-term Archive

Time Weather Temperature Dewpoint Humidity Pressure Winds Precip Visibility
23:51
Mostly Cloudy
73°F / 23°C 72°F / 22°C 94% 30.09 in
(1019 mb)
E 3.5 mph
(E 6 kph)
- 10SM
23:26
Mostly Cloudy
73°F / 23°C 72°F / 22°C 94% 30.09 in
(1019 mb)
E 3.5 mph
(E 6 kph)
- 10SM
22:51
Overcast
73°F / 23°C 72°F / 22°C 94% 30.06 in
(1018 mb)
SE 4.6 mph
(SE 7 kph)
- 10SM
22:38
Mostly Cloudy
73°F / 23°C 72°F / 22°C 94% 30.06 in
(1018 mb)
E 6.9 mph
(E 11 kph)
- 10SM
21:51
Mostly Cloudy
73°F / 23°C 72°F / 22°C 94% 30.06 in
(1018 mb)
Calm - 10SM
20:51
Clear
73°F / 23°C 72°F / 22°C 94% 30.06 in
(1018 mb)
Calm - 10SM
19:51
Mostly Cloudy
75°F / 24°C 72°F / 22°C 89% 30.04 in
(1017 mb)
ENE 4.6 mph
(ENE 7 kph)
- 10SM
19:08
Overcast
73°F / 23°C 72°F / 22°C 94% 30.04 in
(1017 mb)
SE 5.8 mph
(SE 9 kph)
- 10SM
18:51
Mostly Cloudy
75°F / 24°C 73°F / 23°C 94% 30.04 in
(1017 mb)
ESE 5.8 mph
(ESE 9 kph)
- 10SM
17:51
Partly Cloudy
75°F / 24°C 72°F / 22°C 89% 30.04 in
(1017 mb)
Calm - 10SM
17:10
Partly Cloudy
75°F / 24°C 72°F / 22°C 89% 30.04 in
(1017 mb)
Calm - 10SM
17:01
Mostly Cloudy
75°F / 24°C 72°F / 22°C 89% 30.04 in
(1017 mb)
Calm - 10SM
16:51
Mostly Cloudy
75°F / 24°C 72°F / 22°C 89% 30.04 in
(1017 mb)
Calm - 10SM
15:51
Overcast
Fog And Mist
73°F / 23°C 72°F / 22°C 94% 30.04 in
(1017 mb)
ENE 3.5 mph
(ENE 6 kph)
0.05 in
(1.27 mm)
4SM
15:49
Overcast
Fog And Mist
73°F / 23°C 72°F / 22°C 94% 30.04 in
(1017 mb)
Calm 0.05 in
(1.27 mm)
4SM
15:42
Overcast
Light Rain
73°F / 23°C 72°F / 22°C 94% 30.06 in
(1018 mb)
Calm 0.05 in
(1.27 mm)
4SM
14:51
Mostly Cloudy
Light Rain
73°F / 23°C 70°F / 21°C 89% 30.06 in
(1018 mb)
Calm 0.00 in
(0.00 mm)
10SM
13:51
Partly Cloudy
73°F / 23°C 70°F / 21°C 89% 30.06 in
(1018 mb)
Calm 0.01 in
(0.25 mm)
10SM
13:25
Overcast
Light Rain
73°F / 23°C 70°F / 21°C 89% 30.06 in
(1018 mb)
SSE 6.9 mph
(SSE 11 kph)
0.01 in
(0.25 mm)
10SM
12:51
Overcast
Thunder Storms
77°F / 25°C 73°F / 23°C 89% 30.06 in
(1018 mb)
SSE 4.6 mph
(SSE 7 kph)
0.00 in
(0.00 mm)
10SM
12:31
Overcast
77°F / 25°C 73°F / 23°C 89% 30.06 in
(1018 mb)
Calm 0.00 in
(0.00 mm)
10SM
11:58
Overcast
77°F / 25°C 73°F / 23°C 89% 30.09 in
(1019 mb)
S 5.8 mph
(S 9 kph)
0.00 in
(0.00 mm)
10SM
11:51
Overcast
Light Rain
77°F / 25°C 73°F / 23°C 89% 30.09 in
(1019 mb)
S 4.6 mph
(S 7 kph)
0.28 in
(7.11 mm)
7SM
11:45
Overcast
Fog And Mist
75°F / 24°C 73°F / 23°C 94% 30.09 in
(1019 mb)
Calm 0.28 in
(7.11 mm)
4SM
11:43
Overcast
Heavy Rain
75°F / 24°C 72°F / 22°C 89% 30.09 in
(1019 mb)
SSE 3.5 mph
(SSE 6 kph)
0.28 in
(7.11 mm)
3SM
11:36
Overcast
Rain
77°F / 25°C 73°F / 23°C 89% 30.09 in
(1019 mb)
SW 6.9 mph
(SW 11 kph)
0.01 in
(0.25 mm)
1 1/4SM
11:05
Mostly Cloudy
79°F / 26°C 73°F / 23°C 84% 30.06 in
(1018 mb)
SE 3.5 mph
(SE 6 kph)
- 10SM
10:51
Partly Cloudy
79°F / 26°C 73°F / 23°C 84% 30.06 in
(1018 mb)
SSE 3.5 mph
(SSE 6 kph)
- 10SM
10:37
Mostly Cloudy
79°F / 26°C 73°F / 23°C 84% 30.06 in
(1018 mb)
SE 5.8 mph
(SE 9 kph)
- 10SM
10:26
Mostly Cloudy
79°F / 26°C 73°F / 23°C 84% 30.06 in
(1018 mb)
SE 6.9 mph
(SE 11 kph)
- 10SM
10:12
Mostly Cloudy
79°F / 26°C 73°F / 23°C 84% 30.06 in
(1018 mb)
SE 5.8 mph
(SE 9 kph)
- 10SM
10:00
Mostly Cloudy
81°F / 27°C 73°F / 23°C 79% 30.06 in
(1018 mb)
E 4.6 mph
(E 7 kph)
- 10SM
09:51
Mostly Cloudy
79°F / 26°C 73°F / 23°C 84% 30.06 in
(1018 mb)
E 4.6 mph
(E 7 kph)
- 10SM
09:12
Overcast
75°F / 24°C 73°F / 23°C 94% 30.09 in
(1019 mb)
ENE 3.5 mph
(ENE 6 kph)
- 10SM
08:51
Overcast
73°F / 23°C 73°F / 23°C 100% 30.09 in
(1019 mb)
ESE 3.5 mph
(ESE 6 kph)
- 8SM
08:01
Overcast
Fog And Mist
73°F / 23°C 73°F / 23°C 100% 30.06 in
(1018 mb)
SE 4.6 mph
(SE 7 kph)
- 2SM
07:51
Overcast
Fog And Mist
73°F / 23°C 73°F / 23°C 100% 30.06 in
(1018 mb)
SE 4.6 mph
(SE 7 kph)
- 3SM
07:42
Overcast
Fog And Mist
73°F / 23°C 73°F / 23°C 100% 30.06 in
(1018 mb)
SE 3.5 mph
(SE 6 kph)
- 2SM
07:32
Obscured
Fog
73°F / 23°C 73°F / 23°C 100% 30.06 in
(1018 mb)
SE 3.5 mph
(SE 6 kph)
- 1/2SM
06:51
Obscured
Fog
72°F / 22°C 72°F / 22°C 100% 30.04 in
(1017 mb)
SE 4.6 mph
(SE 7 kph)
- 1/4SM
05:51
Obscured
Fog
72°F / 22°C 72°F / 22°C 100% 30.04 in
(1017 mb)
ESE 3.5 mph
(ESE 6 kph)
- 1/4SM
04:51
Obscured
Fog
72°F / 22°C 72°F / 22°C 100% 30.04 in
(1017 mb)
Calm - 1/4SM
04:32
Obscured
Fog
72°F / 22°C 72°F / 22°C 100% 30.01 in
(1016 mb)
Calm - 1/4SM
04:00
Obscured
Fog
72°F / 22°C 72°F / 22°C 100% 30.01 in
(1016 mb)
Calm - 1/4SM
03:51
Obscured
Fog
72°F / 22°C 72°F / 22°C 100% 30.01 in
(1016 mb)
Calm - 1/4SM
03:31
Obscured
Fog And Mist
72°F / 22°C 72°F / 22°C 100% 30.01 in
(1016 mb)
Calm - 3/4SM
03:18
Obscured
Fog
72°F / 22°C 72°F / 22°C 100% 30.01 in
(1016 mb)
Calm - 1/4SM
02:51
Obscured
Fog
72°F / 22°C 72°F / 22°C 100% 30.01 in
(1016 mb)
Calm - 1/4SM
02:22
Obscured
Fog
72°F / 22°C 72°F / 22°C 100% 30.01 in
(1016 mb)
Calm - 1/4SM
02:12
Obscured
Fog And Mist
72°F / 22°C 72°F / 22°C 100% 30.01 in
(1016 mb)
Calm - 3/4SM
02:09
Mostly Cloudy
Fog And Mist
72°F / 22°C 72°F / 22°C 100% 30.01 in
(1016 mb)
Calm - 1 1/2SM
01:51
Mostly Cloudy
Fog And Mist
72°F / 22°C 72°F / 22°C 100% 30.01 in
(1016 mb)
Calm - 4SM
01:49
Mostly Cloudy
Fog And Mist
72°F / 22°C 72°F / 22°C 100% 30.01 in
(1016 mb)
Calm - 4SM
01:39
Partly Cloudy
Fog And Mist
72°F / 22°C 72°F / 22°C 100% 30.01 in
(1016 mb)
Calm - 6SM
00:51
Clear
Fog And Mist
73°F / 23°C 72°F / 22°C 94% 30.01 in
(1016 mb)
Calm - 6SM
Time Weather Temperature Dewpoint Humidity Pressure Winds Precip Visibility


Weather for websites

WeatherForYou.com, LLC is not responsible for any damages or problems caused by this service. Current weather conditions are obtained from the closest station including government and personal stations which may have varying degrees of accuracy. Weather forecasts are derived from the NOAA NDFD. Like all things, this site belongs to Jesus Christ... He just trusts me to maintain it. If you have any questions or comments email webmaster@weatherforyou.com

Copyright © 2014, WeatherForYou.com LLC. All rights reserved.